sat.trackr.live / text

‹ back to catalog

STARLINK-3884

NORAD 52497 · 2022-049AY

PAYLOAD ACTIVE UNKNOWN

§ Identity

Operator
Country
US
Launch date
2022-05-06
Launch site
AFETR
Launch vehicle
Mass (kg)
RCS (m²)

Purposes: comms

External: N2YO · Heavens-Above · Gunter

§ Orbital elements

Epoch: 2026-09-19T20:11:37.773888Z

Period
93.85 min
Inclination
53.1609°
Eccentricity
0.0001509
Mean motion
15.34303478 rev/d
Perigee alt
462.0 km
Apogee alt
464.0 km
Semi-major
6,841.1 km
B*
6.2724e-4
RAAN
247.1512°
Arg perigee
80.9533°
Mean anomaly
279.1641°
Rev number
24,184

§ Raw data

STARLINK-38841 52497U 22049AY  26262.84140942  .00020810  00000+0  62724-3 0  99982 52497  53.1609 247.1512 0001509  80.9533 279.1641 15.34303478241845

JSON: /api/v1/satellites/52497 · /tle

For live sub-satellite position, see the globe view (requires WebGL).

§ Visibility from observer

Set your observer location to see the next 7 days of passes ≥ 10°. The values pass through the URL so the page stays shareable.

No JS? Fill the form by hand. The geolocation button needs JavaScript.